STARLINK-4781, 53861

Orbit data source: Space-Track

STARLINK-4781, 53861 is a payload satellite owned by SpaceX/Seattle (US) in LEO that was launched on Mon, 19 Sep 2022 UTC via an FALCON 9 launch vehicle from the Air Force Eastern Test Range (AFETR). Payload-class satellites include a variety of spacecraft equipped with specific instruments for various scientific and technological missions. These include communications satellites like Starlink; space stations such as the ISS; scientific satellites like the Hubble; Earth observation satellites from companies like Planet Labs, Umbra, and HawkEye 360; GPS; miniature CubeSats for education and research; and military/defense satellites.

Loading next visibility...
Identifier
53861, 2022-114AV
Orbit
LEO
Country
Flag of USUS
Related business
Manufacturer
SpaceX/Seattle
Mission
Operational Commercial Communications
Bus & Motor
STARLINK, Unknown motor
Mass
305 kg wet, ~290 kg dry
Launch date (UTC)
2022-09-19 (4 years ago)
Launch vehicle
FALCON 9
Launch site
Air Force Eastern Test Range (AFETR)
Object type
Payload
Rocket body
Debris
Shape & HBR
Box + 1 Pan, 10.1 m
Radar Cross Section
13.562 m², Large (>1 m²)

Expand to show TLE details & history
Last TLE update: 2 days ago

TLE from 2 days ago
0 STARLINK-4781
1 53861U 22114AV  26171.45443852 -.00001102  00000-0 -51198-4 0  9999
2 53861  53.1591 182.8357 0001079  83.3731 276.7383 15.08826828208627
Epoch: 2026-06-20T10:54Z
TLE epoch observation values (Epoch: 2026-06-20T10:54:23.488Z)
Latitude
-0.00002°
Longitude
110.56899°
Altitude
540.587 km
Speed
7.593 km/s
True Right ascension
12h 11m 20s
True Declination
0° 00' 00"
Sunlit
Object was in daylight at epoch
Visualization orbit readout
Latitude
Unknown
Longitude
Unknown
Altitude
Unknown
Speed
Unknown
Apparent Right ascension
Unknown
Apparent Declination
Unknown
Sunlit
N/A
Visualization observer readout
Local Sidereal Time
21:31:17
Azimuth
Unknown
Elevation
Unknown
Doppler factor
Unknown
Orbital elements
Apogee altitude
540.784 km
Perigee altitude
539.291 km
Semi-major axis
6,918.175 km
Eccentricity
0.00011
Inclination
53.1591°
RAAN
182.8357°
Arg. of periapsis
83.3731°
True anomaly
276.72602°
Mean anomaly
276.7383°
Eccentric anomaly
276.73216°
Mean motion
3.77186 °/min
Orbital period
95.44 mins
BSTAR
-0.000051198
Loading maneuver chart data...
Computing Atmospheric mass density...
Loading historical data...
Loading historical data...
Loading historical data...
Loading historical data...
Loading historical data...
Loading historical data...
Loading historical data...

Documentation

Showing up to 5 results
|